Flag for Canada Weather past 2 weeks in Granby, Quebec, Canada

Now
11 °F

Cold.


Feels Like: 3 °F
Forecast: 5 / 26 °F
Wind: 5 mph from South

Location: Frelighsburg

Current Time: Mar 1, 2015 at 8:03:35 AM

Latest Report: Mar 1, 2015 at 7:00 AM


Visibility: N/A

Pressure: 30.58 "Hg

Humidity: 74%

Dew point: 4 °F

Location of GranbyLocation

Historic Weather in Granby — Graph

°F

Granby temperature yesterday

Maximum temperature yesterday: 21 °F (at 3:00 PM)
Minimum temperature yesterday: 2 °F (at 2:00 AM)
Average temperature yesterday: 11 °F

Past Weeks' High & Low Weather Summary

 TemperatureHumidityPressure
High27 °F (Feb 22, 3:00 PM)100% (Feb 22, 3:00 AM)30.72 "Hg (Feb 22, 3:00 AM)
Low-14 °F (Feb 24, 2:00 AM)27% (Feb 21, 12:00 PM)29.59 "Hg (Feb 19, 4:00 AM)
Average6 °F63%30.06 "Hg
* Reported Feb 14 7:00 AM — Mar 1 7:00 AM, Granby, Weather by CustomWeather, © 2015

Note: Actual official high and low records may vary slightly from our data, if they occured in-between our weather recording intervals... More about our weather records

Advertising

Granby weather history for previous 24 hours

 ConditionsComfort  
Time TempWeatherWind HumidityBarometerVisibility
7:00 AM
Sun, Mar 1
11 °FCold.5 mph74%30.58 "HgN/A
6:00 AM11 °FCold.3 mph70%30.61 "HgN/A
5:00 AM11 °FCold.3 mph65%30.60 "HgN/A
4:00 AM7 °FFrigid.3 mph76%30.62 "HgN/A
3:00 AM8 °FFrigid.3 mph75%30.65 "HgN/A
2:00 AM9 °FFrigid.3 mph72%30.66 "HgN/A
1:00 AM11 °FCold.2 mph65%30.66 "HgN/A
12:00 AM11 °FCold.2 mph66%30.67 "HgN/A
11:00 PM
Sat, Feb 28
12 °FCold.1 mph64%30.66 "HgN/A
10:00 PM13 °FCold.3 mph61%30.66 "HgN/A
9:00 PM14 °FCold.2 mph59%30.66 "HgN/A
8:00 PM13 °FCold.1 mph60%30.66 "HgN/A
7:00 PM15 °FCold.2 mph54%30.66 "HgN/A
6:00 PM17 °FCold.2 mph56%30.65 "HgN/A
5:00 PM20 °FCold.3 mph46%30.65 "HgN/A
4:00 PM21 °FCold.3 mph42%30.66 "HgN/A
3:00 PM21 °FCold.5 mph42%30.66 "HgN/A
2:00 PM20 °FCold.5 mph43%30.66 "HgN/A
1:00 PM17 °FCold.7 mph48%30.68 "HgN/A
12:00 PM15 °FCold.7 mph50%30.71 "HgN/A
11:00 AM13 °FCold.6 mph53%30.72 "HgN/A
10:00 AM11 °FCold.8 mph59%30.71 "HgN/A
9:00 AM10 °FFrigid.6 mph63%30.71 "HgN/A
8:00 AM7 °FFrigid.5 mph67%30.70 "HgN/A
Weather by CustomWeather, © 2015

See weather overviewHow to use our weather pages